Tracking 25709 objects as of 24-May-2022
HD Live streaming from Space Station
objects crossing your sky now

SL-18 R/B

Track SL-18 R/B now!
10-day predictions


NORAD ID: 26703
Int'l Code: 2001-007B
Perigee: 580.7 km
Apogee: 583.9 km
Inclination: 97.7 °
Period: 96.2 minutes
Semi major axis: 6953 km
RCS: 2.4311 m2 (large)
Launch date: February 20, 2001
Source: Commonwealth of Independent States (former USSR) (CIS)
Launch site: Svobodny, Russia (SVOB)

Pakistan's microsatellite for development of surveillance capability.
Note: This is a ROCKET BODY
aabbcc
Your satellite tracking list
Your tracking list is empty




NASA's NSSDC Master Catalog

Two Line Element Set (TLE):
1 26703U 01007B   22143.74575057  .00001847  00000-0  16412-3 0  9995
2 26703  97.6890 153.0295 0002304 258.0715 102.0249 14.97335072438151
Source of the keplerian elements: AFSPC